Hourly Weather Roundup
Issued by NWS Central Illinois

Home | Current Version | Previous Version | Text Only | Print | Product List | Glossary On
Versions: 1 2 3 4 5 6 7 8 9 10 11 12 13 14 15 16 17 18 19 20 21 22 23 24 25 26 27 28 29 30 31 32 33 34 35 36 37 38 39 40 41 42 43 44 45 46 47 48 49 50
000
NZUS43 KILX 310510
HWRILX

AREA WEATHER ROUNDUP
NATIONAL WEATHER SERVICE, LINCOLN IL
1200 AM CDT TUE MAY 31 2016


CITY           SKY/WX    TMP DP  RH WIND       PRES   REMARKS
BLOOMINGTON    CLEAR     72  62  70 SW8       30.00F
CHAMPAIGN      PTCLDY    67  60  78 S5        29.98F
DANVILLE       PTCLDY    67  60  77 CALM      29.95F
DECATUR        CLOUDY    71  58  63 CALM      29.97F
EFFINGHAM      CLOUDY    69  69 100 CALM      29.99S
FLORA          MOCLDY    71  67  88 CALM      29.98R
GALESBURG      CLEAR     68  63  83 CALM      29.98R
JACKSONVILLE   MOCLDY    70  60  70 CALM      29.98R
LACON          CLEAR     68  62  80 CALM      29.96S
LAWRENCEVILLE  MOCLDY    70  63  78 CALM      29.98S
LITCHFIELD     PTCLDY    66  61  83 CALM      29.98S
$$


CITY           SKY/WX    TMP DP  RH WIND       PRES   REMARKS
LINCOLN        CLEAR     71  60  68 CALM      29.97F
MACOMB         CLEAR     72  65  80 SW6       30.00R
MATTOON        PTCLDY    70  60  70 CALM      29.98S
MT CARMEL AP   PTCLDY    69  61  76 CALM      29.97F
OLNEY-NOBLE AP MOCLDY    68  66  94 CALM      29.98S
PARIS          CLEAR     67  63  86 CALM      29.99S
PEORIA         CLEAR     72  63  73 CALM      29.97F
PONTIAC        CLEAR     73  63  68 SW5       29.98S
RANTOUL        PTCLDY    72  60  66 CALM      29.98S
ROBINSON       CLOUDY    65  63  91 CALM      29.98F
SPRINGFIELD    PTCLDY    69  59  70 CALM      29.97F
TAYLORVILLE    PTCLDY    66  60  80 CALM      29.98S
$$

...REGIONAL REPORTS...


CITY           SKY/WX    TMP DP  RH WIND       PRES   REMARKS
CHICAGO O`HARE PTCLDY    69  54  58 NE6       29.99S
KANKAKEE       CLOUDY    70  58  66 CALM      29.99S
MOLINE         CLEAR     68  61  78 CALM      29.96R
MOUNT STERLING MOCLDY    69  64  84 W5        29.98S
MOUNT VERNON   CLOUDY    66  63  88 CALM      29.98S
PITTSFIELD     MOCLDY    71  61  71 SW5       30.00S
QUINCY         PTCLDY    68  61  78 CALM      29.98F
ROCKFORD       PTCLDY    69  56  62 E9        30.00R
$$


CITY           SKY/WX    TMP DP  RH WIND       PRES   REMARKS
BURLINGTON     CLEAR     71  64  78 W7        29.97R
CEDAR RAPIDS   MOCLDY    66  63  90 N17G26    29.98R
DES MOINES     MOCLDY    69  56  62 SE6       29.94R
KIRKSVILLE     PTCLDY    63  60  90 CALM      29.98F
OTTUMWA        PTCLDY    66  59  78 SW5       29.96S
ST LOUIS       CLOUDY    73  62  68 CALM      29.99S
$$


CITY           SKY/WX    TMP DP  RH WIND       PRES   REMARKS
TERRE HAUTE    MOCLDY    67  61  81 CALM      29.99S
EVANSVILLE     PTCLDY    67  61  81 CALM      29.98S
INDIANAPOLIS   PTCLDY    68  59  73 W6        29.98R
LAFAYETTE      PTCLDY    64  60  87 CALM      29.97S
MADISON        CLOUDY    68  55  63 SE8       29.98R
MILWAUKEE      CLOUDY    65  56  72 S3        30.01R
$$






USA.gov is the U.S. government's official web portal to all federal, state and local government web resources and services.